Wind_Speed
23 21 22 23 24 26 31 37 37 37 38 39 40 44 45 47 46 40 42 39 37 33 33 31 29 26 26 27 24 21 20 21 19
16 20 22 24 24 30 34 34 38 40 39 40 40 42 44 42 44 40 37 39 41 38 34 30 28 28 28 30 28 25 23 23 22
18 18 20 22 21 27 35 38 41 41 42 43 43 46 44 44 45 46 43 41 42 40 37 33 30 28 27 31 31 28 26 26 24
18 16 19 20 21 30 37 36 34 40 40 39 40 39 40 40 39 41 41 42 44 41 38 36 32 32 28 30 33 31 29 29 26
11 14 17 19 21 22 27 33 33 37 39 39 43 42 41 41 42 42 41 44 45 42 39 37 33 34 33 31 34 34 33 33 30
8 10 10 10 10 15 18 30 34 35 38 42 39 39 40 39 39 40 41 43 42 44 40 38 37 35 35 34 36 36 35 35 34
10 9 11 9 10 16 16 29 35 35 38 39 38 38 38 39 41 43 43 43 43 45 44 42 40 42 40 37 37 37 36 37 37
7 10 8 9 10 13 15 22 30 33 34 36 38 37 38 42 40 42 41 40 42 43 44 46 45 44 44 43 40 40 39 38 39
10 11 11 9 11 11 13 19 28 33 35 38 40 40 42 38 37 39 40 40 40 41 43 42 42 44 45 44 45 44 42 40 39
13 13 12 11 12 15 16 25 32 31 35 35 39 41 39 39 39 39 39 38 38 40 40 41 42 41 41 44 46 45 43 40 38
15 12 11 11 11 11 21 29 29 33 30 37 38 39 37 35 38 40 37 36 39 41 39 41 40 41 43 40 44 45 44 41 40
14 12 10 10 13 18 20 25 29 29 26 28 30 30 33 37 40 38 37 39 41 39 36 37 40 36 37 41 40 45 45 42 41
12 11 8 8 13 10 15 25 28 27 25 29 30 34 39 41 41 40 39 41 39 37 35 34 31 33 37 42 43 44 43 43 41
5 4 2 2 1 4 4 11 22 23 24 26 39 35 32 33 35 38 41 34 33 33 31 28 29 31 32 36 43 42 43 42 38
5 7 7 11 10 11 8 6 17 14 18 26 18 22 24 28 34 36 34 34 29 27 26 26 26 25 27 31 38 43 41 41 44
6 7 6 10 12 12 18 12 6 5 3 2 11 18 25 28 27 27 27 28 29 29 30 27 28 29 26 27 28 35 39 34 35
7 6 7 10 14 11 12 21 24 18 10 4 3 15 21 21 22 21 23 25 30 29 32 37 38 35 30 26 28 31 35 35 41
6 7 7 11 11 10 11 16 17 19 19 14 10 1 10 17 22 25 24 22 23 26 26 24 21 20 20 17 11 14 24 28 38
8 8 10 11 13 13 13 16 16 12 11 13 11 6 3 12 18 20 22 20 10 19 24 25 26 26 29 26 25 23 18 15 8
11 14 14 14 14 16 17 17 16 12 12 10 7 4 4 8 16 21 22 22 23 19 27 33 32 32 37 34 32 23 20 17 21
Wind_Direction
212 213 212 212 210 204 201 201 200 199 200 205 204 207 210 213 217 217 223 225 226 222 224 229 234 233 231 228 231 228 224 221 223
218 213 214 215 212 208 208 202 201 199 200 204 203 206 209 210 214 215 219 224 228 228 228 231 231 234 230 226 226 226 224 222 222
225 217 214 216 212 212 210 207 203 202 203 202 203 205 206 208 212 217 219 224 228 228 230 231 229 228 229 229 226 225 224 223 225
218 214 217 215 211 210 208 208 201 201 202 202 202 204 205 206 209 213 214 220 228 231 230 230 229 227 229 231 228 227 226 227 227
218 216 214 210 209 205 201 203 201 198 200 202 204 202 203 205 208 209 211 218 226 230 229 229 228 226 230 234 230 227 227 228 229
241 235 232 215 200 199 197 197 200 199 200 203 202 199 201 202 204 205 209 216 219 228 228 229 227 226 228 230 228 225 227 228 230
226 223 238 208 192 199 197 196 197 197 200 203 201 200 201 202 203 205 210 213 214 223 227 227 227 226 227 230 226 225 227 227 230
243 246 231 217 197 196 194 192 195 198 199 196 197 199 202 206 204 207 209 209 213 217 222 226 228 227 228 229 227 226 227 229 230
233 242 241 222 209 202 191 193 193 194 193 194 192 197 205 206 203 204 206 208 209 212 219 220 223 225 227 225 228 229 230 231 232
235 237 234 231 211 201 199 197 194 194 197 191 194 199 201 202 201 203 204 204 205 210 211 215 220 222 223 226 230 231 232 233 234
229 234 237 227 232 216 212 205 198 201 192 193 195 198 201 198 197 203 203 201 205 208 207 208 210 217 222 223 229 232 234 234 234
226 230 225 225 225 220 203 198 198 191 186 193 198 202 202 197 198 202 199 201 207 207 205 206 209 209 212 217 223 231 234 233 227
225 229 229 230 225 213 200 204 191 181 185 190 199 201 202 201 200 201 202 205 206 206 206 208 207 207 214 220 225 231 233 230 219
211 202 187 353 78 56 4 224 187 189 192 198 207 205 204 202 202 203 208 207 205 204 205 203 201 203 212 217 225 229 233 228 212
86 87 62 72 83 64 64 147 182 183 200 217 213 207 207 209 207 206 204 202 198 200 195 201 205 206 209 220 226 228 226 220 218
61 68 67 71 78 70 53 70 140 164 24 255 217 213 213 213 212 210 210 200 193 180 184 202 213 204 208 217 221 220 228 223 219
81 71 82 89 86 69 58 60 64 59 46 312 266 233 228 220 216 211 208 207 200 209 212 195 199 203 209 200 197 210 212 202 195
82 89 91 98 95 88 77 72 65 56 49 52 64 219 233 220 216 204 201 201 213 214 216 211 214 203 196 199 171 166 193 178 177
71 58 55 66 76 87 84 72 71 73 65 53 57 74 146 199 199 190 186 173 164 207 205 196 199 192 172 132 117 116 90 90 337
68 62 58 56 53 48 53 63 55 43 44 41 49 105 160 190 172 166 161 154 140 116 129 168 157 146 140 132 133 150 160 169 199
Height
696 705 707 711 715 722 727 731 738 745 751 756 762 766 771 777 782 787 792 797 802 805 808 812 816 820 822 825 828 831 834 837 839
693 695 697 699 703 709 714 722 727 733 740 746 753 758 763 769 775 781 785 790 794 799 803 807 811 814 817 819 823 827 830 833 836
683 681 686 686 693 699 704 709 713 723 730 734 741 747 753 760 766 771 778 783 787 791 796 801 805 809 812 815 819 822 826 829 833
672 673 673 675 679 683 690 700 707 711 720 727 734 740 746 753 759 764 771 775 780 784 790 795 799 803 807 810 814 818 822 825 829
667 665 662 664 666 674 683 689 698 702 710 717 721 727 736 742 749 755 761 765 771 777 782 788 793 797 801 804 808 812 816 819 823
665 663 660 661 666 669 672 679 686 693 700 703 712 720 726 734 740 746 751 756 763 769 775 779 785 789 792 795 799 804 808 813 817
658 658 656 656 659 659 662 667 672 679 686 695 703 711 718 723 727 733 739 746 753 758 764 770 775 779 783 787 791 796 801 805 809
656 655 653 653 651 652 654 659 665 671 677 686 693 702 708 709 716 724 730 736 742 747 754 757 763 770 774 779 783 787 792 797 801
655 650 644 644 644 646 649 652 656 660 667 674 682 689 693 703 710 715 720 726 733 739 743 750 755 760 766 770 773 777 782 788 793
648 644 640 639 639 635 636 640 644 652 658 666 673 676 681 690 698 704 709 716 723 728 732 741 745 751 758 761 766 771 775 781 785
634 634 633 630 626 626 627 630 637 641 650 654 659 663 673 680 687 693 701 708 711 716 722 726 734 740 746 753 757 763 769 774 777
621 618 619 618 615 614 617 622 627 635 644 651 656 661 668 670 675 683 690 694 698 705 713 718 720 728 735 740 746 750 758 765 768
612 610 611 611 611 613 616 617 622 630 636 641 647 652 653 658 665 672 677 680 689 697 704 709 716 721 724 728 734 738 745 750 754
605 606 608 610 611 613 616 618 622 626 631 633 632 641 649 654 659 663 666 676 683 689 698 703 708 712 717 721 723 727 732 740 746
608 607 607 610 611 613 613 616 621 625 628 628 640 645 649 653 652 654 660 666 674 686 693 701 704 708 711 712 715 718 720 724 728
613 610 610 612 613 615 617 621 624 629 636 637 639 642 643 645 650 655 663 664 670 671 680 692 698 695 698 703 707 706 714 724 731
618 616 616 618 617 619 621 623 624 628 629 630 632 635 637 642 649 654 659 662 662 669 670 655 669 675 683 687 689 696 700 705 716
621 621 623 623 623 627 628 627 628 628 628 628 629 632 635 637 640 644 649 653 656 661 665 669 676 676 682 695 695 699 704 711 705
619 620 620 621 623 627 629 630 631 630 630 630 630 629 629 629 632 637 642 647 651 653 657 662 669 675 678 686 693 704 716 712 715
624 624 625 625 626 627 628 629 629 629 628 628 628 629 628 629 628 630 635 640 644 651 652 651 657 668 674 679 683 693 703 702 725